Regional Weather Roundup
Issued by NWS

Home | Current Version | Previous Version | Text Only | Print | Product List | Glossary On
Versions: 1 2 3 4 5 6 7 8 9 10 11 12 13 14 15 16 17 18 19 20 21 22 23 24 25 26 27 28 29 30 31 32 33 34 35 36 37 38 39 40 41 42 43 44 45 46 47 48 49 50
717
ASUS43 KMKX 241159
RWRWI

WISCONSIN REGIONAL WEATHER ROUNDUP
NATIONAL WEATHER SERVICE MILWAUKEE/SULLIVAN WI
600 AM CST TUE JAN 24 2017

NOTE: "FAIR" INDICATES FEW OR NO CLOUDS BELOW 12,000 FEET WITH NO
SIGNIFICANT WEATHER AND/OR OBSTRUCTIONS TO VISIBILITY.

WIZ001-002-006>008-014>016-023>028-241300-
NORTHWEST WISCONSIN

CITY           SKY/WX    TMP DP  RH WIND       PRES   REMARKS
SUPERIOR ARPT  CLOUDY    32  29  89 NW3       29.86S
ASHLAND        CLOUDY    33  32  96 SW5       29.86R WCI  29
6HR MIN TEMP:  33; 6HR MAX TEMP:  34;

HAYWARD        CLOUDY    33  30  88 CALM      29.84S
6HR MIN TEMP:  33; 6HR MAX TEMP:  33; 6HR PCP: TRACE;

SIREN          CLOUDY    31  31  99 CALM      29.86S FOG
CUMBERLAND     LGT SNOW  32  30  93 CALM      29.84S
RICE LAKE      CLOUDY    32  32  99 CALM      29.86S FOG
CHETEK         CLOUDY    32  32  99 CALM      29.86R FOG
LADYSMITH      CLOUDY    32  32  99 CALM      29.86R FOG
EAU CLAIRE     NOT AVBL
MENOMONIE        N/A    N/A N/A N/A MISG        N/A
NEW RICHMOND   CLOUDY    31  31 100 W3        29.87R FOG
OSCEOLA        CLOUDY    32  30  94 W5        29.90R WCI  27
$$

WIZ003>005-009-010-017-018-241300-
NORTH CENTRAL WISCONSIN

CITY           SKY/WX    TMP DP  RH WIND       PRES   REMARKS
MANITOWISH WTR CLOUDY    32  32 100 NW3       29.81S
ARBOR VITAE    CLOUDY    34  33  96 NW5       29.81S WCI  30
WOODRUFF       CLOUDY    34  33  96 NW5       29.81S WCI  30
RHINELANDER    CLOUDY    34  33  96 NW6       29.81R WCI  29
6HR MIN TEMP:  34; 6HR MAX TEMP:  35;

EAGLE RIVER    CLOUDY    32  32 100 NW3       29.80R FOG
LAND O LAKES   CLOUDY    33  33 100 NW6       29.81R FOG     WCI  28
PHILLIPS       CLOUDY    32  32 100 CALM      29.82R
6HR MIN TEMP:  31; 6HR MAX TEMP:  32;

TOMAHAWK       CLOUDY    32  31  98 CALM      29.83R
MEDFORD        FLURRIES  31  30  96 W3        29.82R
MERRILL        CLOUDY    33  33 100 CALM        N/A
6HR MIN TEMP:  33; 6HR MAX TEMP:  34;

$$

WIZ029-030-035-036-043>047-241300-
CENTRAL WISCONSIN

CITY           SKY/WX    TMP DP  RH WIND       PRES   REMARKS
WAUSAU         CLOUDY    33  32  96 NW5       29.82R WCI  29
6HR MIN TEMP:  33; 6HR MAX TEMP:  34;

MOSINEE        CLOUDY    32  32 100 NW6       29.84R WCI  26
MARSHFIELD     CLOUDY    33  31  92 N6        29.83R FOG     WCI  28
6HR MIN TEMP:  32; 6HR MAX TEMP:  33;

STEVENS POINT  CLOUDY    32  32 100 NW5       29.83S WCI  27
WAUPACA        CLOUDY    37  35  95 CALM      29.83S FOG
WAUTOMA        CLOUDY    34  33  96 W6        29.85R WCI  29
6HR MIN TEMP:  34; 6HR MAX TEMP:  34;

WISC RAPIDS    CLOUDY    33  33 100 NW3       29.86R
6HR MIN TEMP:  33; 6HR MAX TEMP:  34;

CAMP DOUGLAS   CLOUDY    32  32 100 W7        29.86R WCI  26
$$

WIZ011>013-019>022-031-037>040-048>050-241300-
NORTHEAST WISCONSIN

CITY           SKY/WX    TMP DP  RH WIND       PRES   REMARKS
ANTIGO         FOG       33  33 100 NW7       29.81R VSB 3/4 WCI  26
SHAWANO        CLOUDY    37  34  90 W3        29.82S
OCONTO         CLOUDY    33  33 100 CALM      29.81S
STURGEON BAY   FOG       33  33 100 W3        29.82R VSB 1/2
6HR MIN TEMP:  32; 6HR MAX TEMP:  33;

GREEN BAY      CLOUDY    36  35  96 NW3       29.81F
6HR MIN TEMP:  35; 6HR MAX TEMP:  37;

MANITOWOC      NOT AVBL
APPLETON       CLOUDY    34  34 100 NW5       29.80R FOG     WCI  30
CLINTONVILLE   CLOUDY    34  34 100 NW3       29.82S
OSHKOSH        CLOUDY    35  33  92 W5        29.82S FOG     WCI  31
6HR MIN TEMP:  34; 6HR MAX TEMP:  35;

$$

WIZ032>034-041-042-053>061-241300-
SOUTHWEST WISCONSIN

CITY           SKY/WX    TMP DP  RH WIND       PRES   REMARKS
LA CROSSE      CLOUDY    35  31  85 CALM      29.88R
6HR MIN TEMP:  35; 6HR MAX TEMP:  37;

SPARTA         CLOUDY    32  32 100 CALM      29.88R FOG
VIROQUA        CLOUDY    32  32 100 CALM      29.84S VSB 1
6HR MIN TEMP:  32; 6HR MAX TEMP:  33;

BOSCOBEL       CLOUDY    34  31  88 CALM      29.87S
6HR MIN TEMP:  34; 6HR MAX TEMP:  35;

PRAIRIE DU CHI CLOUDY    33  31  94 CALM      29.87S
PLATTEVILLE    CLOUDY    33  33 100 CALM      29.86S
$$

WIZ056-057-062-063-064-067-068-241300-
SOUTH CENTRAL WISCONSIN

CITY           SKY/WX    TMP DP  RH WIND       PRES   REMARKS
REEDSBURG      CLOUDY    33  33  99 W5        29.86R WCI  29
BARABOO/DELLS  CLOUDY    33  32  96 W3        29.86R
LONE ROCK      NOT AVBL
MINERAL POINT  CLOUDY    34  34 100 CALM      29.84F
MADISON        CLOUDY    34  30  85 NW7       29.86S WCI  28
6HR MIN TEMP:  34; 6HR MAX TEMP:  36;

MIDDLETON      CLOUDY    35  35 100 NW9       29.86R WCI  28
WATERTOWN      CLOUDY    33  33 100 W3        29.85R
MONROE         CLOUDY    32  32 100 NW7       29.85R WCI  26
JANESVILLE     CLOUDY    34  34 100 NW5       29.86R WCI  30
$$

WIZ051-052-058>065-066-070>072-241300-
SOUTHEAST WISCONSIN

CITY           SKY/WX    TMP DP  RH WIND       PRES   REMARKS
MILWAUKEE      CLOUDY    37  34  89 W8        29.84R WCI  31
6HR MIN TEMP:  37; 6HR MAX TEMP:  39;

WAUKESHA       CLOUDY    32  32 100 W7        29.85R FOG     WCI  26
MILWAUKEE/TIMM CLOUDY    34  32  93 W10       29.84R FOG     WCI  26
RACINE         CLOUDY    36  33  89 W9        29.84S WCI  29
6HR MIN TEMP:  36; 6HR MAX TEMP:  37;

KENOSHA        CLOUDY    36  32  85 NW10      29.84R WCI  28
6HR MIN TEMP:  36; 6HR MAX TEMP:  37;

FOND DU LAC    CLOUDY    35  32  88 W8        29.83R FOG     WCI  29
6HR MIN TEMP:  35; 6HR MAX TEMP:  36; 6HR PCP: TRACE;

SHEBOYGAN      CLOUDY    35  33  92 NW6       29.82R WCI  30
6HR MIN TEMP:  34; 6HR MAX TEMP:  35;

WEST BEND      CLOUDY    34  34 100 W6        29.83R FOG     WCI  29
JUNEAU         CLOUDY    33  33  99 W3        29.85R FOG
$$

LSZ147-162-241300-
LAKE SUPERIOR

STATION/POSITION TIME  TEMP    WIND        PRES    WAVE
                       AIR SEA DIR/SP/G            HT/PER
                 (UTC) (F)     (DEG/KT/KT) (MB)    (FT/S)
DEVILS ISLAND    1100   34     230/ 10/ 11 1010.9F
PORT WING        1140   33     240/  2/  4 1011.5R
SAXON HARBOR     1140   35     210/  6/  9 1010.8R
$$

LMZ867-665-643>646-241300-
LAKE MICHIGAN

STATION/POSITION TIME  TEMP    WIND        PRES    WAVE
                       AIR SEA DIR/SP/G            HT/PER
                 (UTC) (F)     (DEG/KT/KT) (MB)    (FT/S)
NORTHPORT PIER   1140   35     290/  6/  9 1009.1S
SISTER BAY       1105   33     290/  4/  5   N/A
KEWAUNEE LAKESHO 1130   35      CALM  /  3 1009.2R
SHEBOYGAN LAKESH 1100   36     280/ 10/ 11 1009.7R
PORT WASHINGTON  1130   36     280/  5/  7 1010.8S
KENOSHA   LAKESH 1100   37     300/  7/  8 1010.2
$$

TC  - TEMPERATURE IN CELSIUS
VSB - VISIBILITY IN STATUTE MILES
WCI - WIND CHILL INDEX
HX  - HEAT INDEX





USA.gov is the U.S. government's official web portal to all federal, state and local government web resources and services.